Location: Muenchen
(48.1800°N, 11.5800°E)
Time: 17:21:27
(UTC+02:00)

ISS - Visible Passes

Search period start: 28 July 2015 00:00
Search period end: 07 August 2015 00:00
Orbit: 401 x 403 km, 51.6° (Epoch: 28 July)

Date Brightness Start Highest point End Pass type
(mag) Time Alt. Az. Time Alt. Az. Time Alt. Az.
28 Jul -0.7 00:53:45 13° ENE 00:53:45 13° ENE 00:54:11 10° ENE visible
28 Jul -2.2 02:26:21 30° WNW 02:27:32 44° N 02:30:41 10° ENE visible
28 Jul -2.7 04:01:03 10° WNW 04:04:17 58° NNE 04:07:31 10° E visible
29 Jul -2.1 01:35:11 40° NE 01:35:11 40° NE 01:37:39 10° ENE visible
29 Jul -2.3 03:08:00 10° WNW 03:11:12 47° N 03:14:23 10° E visible
29 Jul -3.3 04:44:29 10° WNW 04:47:43 61° SSW 04:50:56 10° SE visible
30 Jul -0.7 00:43:57 14° ENE 00:43:57 14° ENE 00:44:27 10° ENE visible
30 Jul -2.2 02:16:32 27° NW 02:17:54 43° N 02:21:02 10° ENE visible
30 Jul -3.4 03:51:15 10° WNW 03:54:31 87° NNE 03:57:48 10° ESE visible
30 Jul -1.8 22:09:27 10° S 22:11:14 18° SSE 22:11:14 18° SSE visible
30 Jul-0.323:52:58ENE23:52:58ENE23:44:10WSWvisible
31 Jul -1.6 01:25:36 29° NE 01:25:36 29° NE 01:27:33 10° ENE visible
31 Jul -2.9 02:58:15 13° WNW 03:01:06 62° NNE 03:04:20 10° E visible
31 Jul -2.6 04:34:25 10° W 04:37:24 32° SW 04:40:20 10° SSE visible
31 Jul -3.4 22:51:04 10° SW 22:54:16 56° SSE 22:56:48 15° ENE visible
01 Aug -1.8 00:27:33 10° W 00:29:31 31° WNW 00:29:31 31° WNW visible
01 Aug -1.2 02:09:19 21° ENE 02:09:19 21° ENE 02:10:38 10° E visible
01 Aug -3.3 03:42:10 24° W 03:43:53 54° SSW 03:47:04 10° SE visible
01 Aug -2.7 21:57:39 10° SSW 22:00:37 33° SE 22:03:37 10° E visible
01 Aug -2.9 23:33:39 10° W 23:36:53 61° NNW 23:38:55 20° ENE visible
02 Aug -0.9 01:10:26 10° WNW 01:11:30 18° WNW 01:11:30 18° WNW visible
02 Aug -3.4 22:39:39 10° WSW 22:42:55 86° NNW 22:46:11 10° ENE visible
03 Aug -2.2 00:16:22 10° WNW 00:19:30 43° N 00:19:40 42° N visible
03 Aug -3.3 21:45:35 10° SW 21:48:48 61° SSE 21:52:02 10° ENE visible
03 Aug -2.4 23:22:05 10° W 23:25:15 47° N 23:27:25 18° ENE visible
04 Aug -1.0 00:58:44 10° WNW 00:59:56 20° WNW 00:59:56 20° WNW visible
04 Aug -2.8 22:27:37 10° W 22:30:50 59° NNW 22:34:04 10° ENE visible
05 Aug -2.2 00:04:20 10° WNW 00:07:25 44° N 00:07:25 44° N visible
05 Aug -3.3 21:33:01 10° WSW 21:36:16 82° NNW 21:39:33 10° ENE visible
05 Aug -2.2 23:09:42 10° WNW 23:12:50 43° N 23:14:41 21° ENE visible
06 Aug -0.9 00:46:12 10° WNW 00:47:10 18° WNW 00:47:10 18° WNW visible
06 Aug -2.3 22:14:50 10° W 22:18:00 46° N 22:21:10 10° ENE visible
06 Aug -2.4 23:51:27 10° WNW 23:54:14 48° NNW 23:54:14 48° NNW visible
